Total_Precipitation_Accumulation
0.22 0.47 0.88 1.18 1.29 0.80 0.45 0.30 0.21 0.14 0.13 0.07 0.04 0.05 0.15 0.31 0.52 0.70 0.48 0.37 0.24 0.19 0.14 0.20 0.30 0.25 0.21 0.27 0.36 0.47 0.52 0.62 0.51 0.42 0.34 0.26 0.21 0.20 0.20 0.14 0.17 0.21 0.16 0.14 0.20 0.33 0.37 0.41 0.44
0.38 0.88 1.21 1.64 1.36 0.60 0.48 0.35 0.28 0.20 0.12 0.08 0.06 0.04 0.09 0.11 0.11 0.23 0.46 0.48 0.23 0.15 0.14 0.24 0.33 0.28 0.30 0.36 0.42 0.50 0.57 0.67 0.59 0.46 0.33 0.24 0.21 0.20 0.20 0.30 0.36 0.27 0.14 0.11 0.19 0.33 0.36 0.36 0.43
0.53 1.05 1.40 1.47 0.86 0.53 0.58 0.43 0.30 0.18 0.09 0.07 0.06 0.04 0.10 0.17 0.20 0.37 0.56 0.43 0.23 0.14 0.20 0.36 0.44 0.37 0.38 0.47 0.57 0.59 0.66 0.68 0.60 0.45 0.28 0.23 0.24 0.26 0.34 0.44 0.37 0.20 0.12 0.11 0.16 0.27 0.31 0.28 0.29
0.68 1.24 1.37 1.03 0.73 0.53 0.53 0.45 0.24 0.17 0.09 0.05 0.04 0.07 0.12 0.17 0.27 0.44 0.46 0.36 0.30 0.24 0.22 0.35 0.46 0.41 0.43 0.54 0.67 0.67 0.69 0.73 0.66 0.48 0.31 0.26 0.27 0.27 0.31 0.38 0.33 0.17 0.09 0.08 0.13 0.22 0.28 0.26 0.25
0.76 1.15 1.27 0.95 0.72 0.57 0.47 0.36 0.19 0.15 0.12 0.08 0.05 0.15 0.27 0.34 0.33 0.38 0.43 0.46 0.44 0.36 0.29 0.33 0.43 0.41 0.46 0.60 0.71 0.73 0.77 0.78 0.73 0.52 0.40 0.35 0.32 0.27 0.31 0.33 0.28 0.14 0.09 0.09 0.12 0.19 0.22 0.21 0.24
0.91 1.09 1.37 1.17 0.87 0.69 0.49 0.33 0.18 0.18 0.15 0.13 0.13 0.23 0.32 0.44 0.43 0.43 0.43 0.48 0.51 0.52 0.43 0.37 0.48 0.52 0.53 0.60 0.67 0.72 0.77 0.80 0.75 0.55 0.47 0.44 0.39 0.33 0.31 0.31 0.25 0.16 0.14 0.13 0.13 0.16 0.18 0.16 0.20
0.85 1.04 1.22 1.01 0.91 0.87 0.56 0.28 0.21 0.19 0.19 0.18 0.18 0.31 0.35 0.46 0.39 0.51 0.55 0.56 0.63 0.63 0.58 0.51 0.52 0.57 0.66 0.73 0.77 0.77 0.80 0.81 0.84 0.68 0.58 0.53 0.44 0.35 0.32 0.29 0.23 0.18 0.17 0.15 0.13 0.13 0.12 0.12 0.17
0.51 0.65 0.82 0.86 0.83 0.80 0.48 0.22 0.17 0.14 0.14 0.11 0.16 0.30 0.39 0.40 0.38 0.49 0.58 0.59 0.60 0.62 0.62 0.58 0.60 0.68 0.67 0.73 0.91 0.96 0.96 0.99 1.01 0.85 0.70 0.63 0.47 0.37 0.36 0.28 0.25 0.23 0.23 0.22 0.18 0.15 0.13 0.12 0.16
0.53 0.66 0.93 1.12 0.86 0.64 0.33 0.21 0.13 0.11 0.10 0.09 0.11 0.19 0.26 0.30 0.39 0.48 0.58 0.59 0.61 0.58 0.58 0.58 0.61 0.72 0.78 0.76 0.86 1.12 1.14 1.17 1.13 0.99 0.87 0.75 0.56 0.46 0.44 0.36 0.40 0.36 0.32 0.32 0.31 0.25 0.17 0.13 0.14
0.71 0.90 1.12 0.98 0.56 0.40 0.27 0.23 0.15 0.14 0.13 0.11 0.14 0.21 0.29 0.37 0.46 0.51 0.54 0.57 0.59 0.61 0.56 0.55 0.54 0.60 0.69 0.74 0.85 1.01 1.00 1.01 0.99 1.14 1.04 0.91 0.84 0.71 0.43 0.45 0.53 0.55 0.53 0.46 0.39 0.35 0.21 0.12 0.09
0.65 0.77 0.65 0.61 0.39 0.25 0.20 0.16 0.15 0.17 0.20 0.16 0.18 0.22 0.31 0.41 0.50 0.54 0.57 0.56 0.59 0.57 0.52 0.47 0.44 0.44 0.50 0.63 0.80 0.90 1.01 1.11 1.07 1.03 1.03 1.00 0.87 0.68 0.55 0.57 0.55 0.55 0.54 0.42 0.40 0.33 0.21 0.15 0.12
0.53 0.46 0.37 0.29 0.20 0.18 0.21 0.17 0.16 0.16 0.19 0.16 0.17 0.23 0.32 0.37 0.45 0.48 0.51 0.51 0.49 0.50 0.52 0.46 0.36 0.36 0.38 0.46 0.55 0.66 0.80 0.92 0.95 0.81 0.77 0.85 0.87 0.75 0.61 0.60 0.58 0.56 0.55 0.55 0.52 0.45 0.34 0.25 0.20
0.59 0.46 0.31 0.28 0.24 0.21 0.19 0.19 0.15 0.14 0.18 0.17 0.21 0.27 0.33 0.39 0.45 0.47 0.44 0.43 0.42 0.47 0.53 0.49 0.41 0.39 0.37 0.41 0.43 0.44 0.63 0.80 0.90 0.92 0.79 0.77 0.78 0.76 0.69 0.57 0.58 0.52 0.52 0.55 0.55 0.51 0.43 0.39 0.33
0.53 0.42 0.34 0.32 0.26 0.20 0.17 0.17 0.14 0.19 0.22 0.19 0.19 0.23 0.29 0.37 0.43 0.44 0.42 0.42 0.41 0.44 0.53 0.53 0.51 0.51 0.46 0.40 0.40 0.42 0.51 0.63 0.71 0.86 0.88 0.82 0.74 0.71 0.73 0.67 0.67 0.67 0.63 0.62 0.59 0.52 0.54 0.49 0.39
0.26 0.32 0.33 0.30 0.27 0.23 0.19 0.19 0.16 0.25 0.25 0.21 0.18 0.19 0.23 0.30 0.34 0.36 0.37 0.37 0.41 0.42 0.44 0.45 0.46 0.54 0.54 0.52 0.50 0.50 0.59 0.61 0.68 0.74 0.76 0.83 0.74 0.67 0.73 0.75 0.74 0.74 0.75 0.73 0.71 0.66 0.67 0.58 0.48
0.23 0.34 0.45 0.37 0.32 0.31 0.27 0.22 0.18 0.27 0.24 0.23 0.22 0.22 0.22 0.24 0.28 0.31 0.34 0.34 0.37 0.36 0.37 0.42 0.41 0.48 0.56 0.61 0.64 0.69 0.71 0.75 0.82 0.79 0.76 0.76 0.72 0.69 0.78 0.79 0.81 0.85 0.78 0.74 0.77 0.77 0.77 0.70 0.62
0.39 0.38 0.39 0.37 0.31 0.29 0.27 0.20 0.20 0.24 0.22 0.20 0.20 0.21 0.21 0.23 0.26 0.29 0.31 0.32 0.33 0.34 0.35 0.39 0.43 0.49 0.55 0.60 0.71 0.81 0.89 0.97 1.11 1.08 1.03 0.97 0.85 0.86 0.93 0.96 0.98 0.99 1.00 0.92 0.79 0.77 0.80 0.82 0.75
0.50 0.30 0.24 0.23 0.23 0.21 0.20 0.19 0.18 0.21 0.18 0.16 0.16 0.15 0.18 0.22 0.25 0.28 0.30 0.32 0.34 0.34 0.35 0.40 0.47 0.55 0.65 0.80 1.02 1.26 1.33 1.51 1.73 1.68 1.53 1.34 1.17 1.12 1.21 1.19 1.16 1.20 1.27 1.25 1.02 1.03 0.96 0.87 0.82
0.28 0.18 0.14 0.14 0.17 0.15 0.13 0.13 0.13 0.14 0.13 0.13 0.12 0.12 0.12 0.13 0.17 0.20 0.22 0.25 0.24 0.24 0.28 0.35 0.40 0.50 0.62 0.84 1.17 1.60 1.82 1.94 1.96 1.98 1.89 1.68 1.46 1.46 1.60 1.55 1.54 1.52 1.47 1.41 1.33 1.41 1.35 1.08 0.95
0.17 0.14 0.11 0.09 0.10 0.08 0.06 0.06 0.06 0.07 0.07 0.08 0.08 0.09 0.09 0.11 0.12 0.11 0.13 0.15 0.14 0.15 0.17 0.27 0.33 0.42 0.56 0.85 1.17 1.52 1.88 1.96 1.98 1.98 1.93 1.80 1.68 1.70 1.73 1.89 1.96 1.93 1.99 1.94 1.74 1.81 1.82 1.51 1.25
0.15 0.15 0.14 0.10 0.06 0.05 0.04 0.04 0.04 0.04 0.05 0.06 0.06 0.07 0.08 0.10 0.11 0.09 0.08 0.09 0.11 0.11 0.12 0.18 0.24 0.39 0.67 1.01 1.33 1.53 1.82 1.95 2.01 1.96 1.97 1.99 1.94 1.84 1.86 1.96 2.09 2.10 2.15 2.20 2.24 2.15 2.20 1.98 1.62
0.15 0.11 0.08 0.06 0.05 0.04 0.04 0.05 0.04 0.06 0.10 0.12 0.13 0.13 0.15 0.17 0.14 0.12 0.09 0.07 0.08 0.09 0.11 0.14 0.20 0.40 0.74 1.08 1.34 1.59 1.94 2.05 2.03 2.05 2.04 2.06 2.08 2.03 2.09 2.11 2.19 2.20 2.19 2.26 2.35 2.28 2.36 2.38 2.02
0.09 0.07 0.05 0.05 0.05 0.04 0.03 0.05 0.05 0.08 0.15 0.21 0.23 0.23 0.23 0.20 0.15 0.12 0.10 0.09 0.10 0.10 0.13 0.20 0.34 0.52 0.78 0.99 1.24 1.60 1.86 1.98 2.14 2.08 2.05 2.05 2.11 2.13 2.15 2.21 2.34 2.31 2.24 2.23 2.44 2.46 2.49 2.41 2.32
0.05 0.04 0.05 0.06 0.07 0.06 0.03 0.07 0.13 0.17 0.19 0.21 0.22 0.23 0.23 0.20 0.16 0.16 0.15 0.15 0.16 0.18 0.24 0.33 0.49 0.64 0.85 1.02 1.22 1.41 1.67 1.82 1.97 2.07 2.01 1.99 2.04 2.14 2.03 1.96 2.08 2.11 2.12 2.13 2.30 2.45 2.53 2.47 2.50
0.02 0.04 0.10 0.13 0.16 0.12 0.07 0.16 0.28 0.23 0.18 0.19 0.20 0.21 0.23 0.24 0.26 0.30 0.31 0.34 0.41 0.44 0.48 0.56 0.65 0.76 0.87 0.97 1.06 1.13 1.30 1.47 1.54 1.71 1.79 1.91 1.92 1.97 1.98 1.88 1.86 1.85 1.79 1.81 1.94 2.01 2.07 2.18 2.31
0.01 0.03 0.10 0.15 0.15 0.15 0.17 0.36 0.41 0.27 0.23 0.22 0.23 0.25 0.29 0.37 0.43 0.53 0.61 0.69 0.76 0.75 0.74 0.81 0.86 0.84 0.83 0.87 0.94 0.97 1.04 1.13 1.21 1.26 1.30 1.48 1.64 1.68 1.74 1.72 1.65 1.67 1.71 1.71 1.77 1.78 1.79 1.81 1.88
0.01 0.03 0.06 0.13 0.12 0.13 0.20 0.43 0.44 0.32 0.31 0.31 0.32 0.33 0.42 0.61 0.71 0.81 0.91 0.92 0.93 0.90 0.85 0.86 0.89 0.86 0.84 0.84 0.84 0.80 0.79 0.86 0.96 0.99 1.06 1.13 1.23 1.25 1.31 1.39 1.43 1.49 1.55 1.60 1.71 1.76 1.76 1.71 1.68
0.03 0.07 0.13 0.26 0.34 0.30 0.31 0.48 0.52 0.44 0.39 0.37 0.41 0.49 0.65 0.91 1.06 1.19 1.27 1.17 1.10 1.09 1.13 1.02 0.93 0.85 0.82 0.82 0.82 0.76 0.73 0.77 0.81 0.82 0.88 0.87 0.89 0.89 0.95 1.06 1.21 1.37 1.47 1.55 1.61 1.63 1.70 1.72 1.69
0.10 0.16 0.24 0.37 0.45 0.57 0.70 0.85 0.68 0.58 0.58 0.65 0.75 0.83 1.00 1.26 1.43 1.52 1.53 1.43 1.23 1.10 1.09 1.04 0.93 0.82 0.71 0.70 0.76 0.76 0.71 0.72 0.77 0.76 0.71 0.65 0.68 0.73 0.83 0.88 1.02 1.16 1.27 1.45 1.60 1.61 1.62 1.63 1.61
0.22 0.37 0.50 0.74 0.74 0.67 0.87 1.09 0.84 0.69 0.71 0.74 0.80 0.92 1.10 1.22 1.30 1.34 1.30 1.29 1.18 1.08 1.00 0.95 0.85 0.71 0.65 0.70 0.73 0.75 0.67 0.61 0.64 0.64 0.65 0.57 0.55 0.58 0.67 0.78 0.95 1.08 1.15 1.17 1.25 1.32 1.35 1.35 1.39